Miscellaneous Local Product
Issued by NWS North Platte, NE

Home | Current Version | Previous Version | Text Only | Print | Product List | Glossary On
Versions: 1 2 3 4 5 6 7 8 9 10 11 12 13 14 15 16 17 18 19 20 21 22 23 24 25 26 27 28 29 30 31 32 33 34 35 36 37 38 39 40 41 42 43 44 45 46 47 48 49 50
499
AXUS43 KLBF 231610
MISLBF


WESTERN AND NORTH CENTRAL NEBRASKA HOURLY WEATHER ROUNDUP
NATIONAL WEATHER SERVICE NORTH PLATTE NE
1100 AM CDT MON MAY 23 2016

NOTE: "FAIR" INDICATES FEW OR NO CLOUDS BELOW 12,000 FEET WITH NO
SIGNIFICANT WEATHER AND/OR OBSTRUCTIONS TO VISIBILITY.

NOTE: STATIONS NOT REPORTING VARIABLES SUCH AS SKY/WEATHER OR
PRESSURE ARE PROVIDED BY RAWS AND APRS NETWORKS AND ARE NOT UNDER
NATIONAL WEATHER SERVICE QUALITY CONTROL.

...OBSERVATIONS IN AND NEAR THE EASTERN PANHANDLE OF NEBRASKA...

CITY           SKY/WX    TMP DP  RH WIND       PRES   REMARKS
PINE RIDGE     SUNNY     63  36  36 W13G21    29.82F
CHADRON        SUNNY     65  38  36 W14       29.81F
ALLIANCE       SUNNY     64  31  28 NW16      29.84F
SIDNEY         MOSUNNY   63  30  28 NW12      29.90F
CRESCENT LAKE    N/A     64  34  33 W9          N/A
BIG SPRINGS      N/A     61  40  46 W5          N/A
$$

...OBSERVATIONS IN NORTHERN NEBRASKA AND FAR SOUTHERN SOUTH DAKOTA...

CITY           SKY/WX    TMP DP  RH WIND       PRES   REMARKS
WINNER         FAIR      67  49  52 W7        29.75F
VALENTINE      SUNNY     67  42  40 W12       29.79S
THEDFORD       SUNNY     68  44  42 W14       29.83R
AINSWORTH      SUNNY     66  46  48 SW7       29.81S
O`NEILL        CLOUDY    68  54  61 W7        29.80S
ORD            CLOUDY    66  55  67 W10       29.82R
BROKEN BOW     CLOUDY    65  54  67 SW8       29.84R
BUTTE            N/A     67  53  59 SW9         N/A
CHAMBERS         N/A     71  55  58 S7          N/A
EWING            N/A     65  60  85 W7          N/A
$$

...OBSERVATIONS IN SOUTHWEST NEBRASKA AND FAR NORTHEAST COLORADO...

CITY           SKY/WX    TMP DP  RH WIND       PRES   REMARKS
WRAY           FAIR      68  34  28 N9        29.89F
HOLYOKE        FAIR      68  36  30 NW8       29.89F
IMPERIAL       SUNNY     66  42  41 N13       29.88S
OGALLALA       SUNNY     66  34  29 NW8       29.88S
NORTH PLATTE   SUNNY     68  50  52 W6        29.84F
MCCOOK         SUNNY     68  51  54 N3        29.86F
LEXINGTON      SUNNY     65  53  65 CALM      29.85F
PAXTON           N/A     62  50  64 W6          N/A
STAPLETON        N/A     69  52  54 CALM        N/A
GOTHENBURG       N/A     64  47  55 W3          N/A
CALLAWAY         N/A     62  55  79 W6          N/A
$$

...OBSERVATIONS IN CENTRAL LINCOLN COUNTY AREA...

CITY           SKY/WX    TMP DP  RH WIND       PRES   REMARKS
N.P. AIRPORT   SUNNY     68  50  52 W6        29.84F
N.P. DOWNTOWN    N/A     68  48  48 W3          N/A
N.P. HILLCREST   N/A     66  47  50 W7          N/A
$$

...SOME OBSERVATIONS FROM AROUND THE REGION...

CITY           SKY/WX    TMP DP  RH WIND       PRES   REMARKS
DENVER         CLOUDY    57  36  45 SE13      29.95F
LARAMIE        SUNNY     50  24  36 SW20G25   29.96F
CHEYENNE       SUNNY     57  36  45 S14       29.92F
RAPID CITY     SUNNY     66  38  35 W6        29.77F
BISMARCK       SUNNY     71  44  37 W8        29.68S
PIERRE         SUNNY     65  51  60 VRB5      29.72S
SIOUX FALLS    CLOUDY    67  61  81 S10       29.77S
OMAHA          CLOUDY    76  65  68 S13       29.80S
GRAND ISLAND   MOSUNNY   68  60  75 VRB7      29.82S
KANSAS CITY    TSTM      66  61  84 SE12      29.89F
WICHITA        TSTM      62  58  86 SE9G20    29.87R FOG
OKLAHOMA CITY  CLOUDY    69  63  81 S16G23    29.87F
DALLAS         MOSUNNY   75  68  78 SE18G25   29.92F
AMARILLO       MOSUNNY   76  51  41 SW9       29.88R
DODGE CITY     MOSUNNY   71  61  70 MISG      29.81F
HAYS           CLOUDY    66  57  72 SE8       29.81S
GOODLAND       SUNNY     65  47  52 E8        29.88F
$$




USA.gov is the U.S. government's official web portal to all federal, state and local government web resources and services.